Regional Weather Roundup
Issued by NWS

Home | Current Version | Previous Version | Text Only | Print | Product List | Glossary Off
Versions: 1 2 3 4 5 6 7 8 9 10 11 12 13 14 15 16 17 18 19 20 21 22 23 24 25 26 27 28 29 30 31 32 33 34 35 36 37 38 39 40 41 42 43 44 45 46 47 48 49 50

000
ASUS45 KCYS 281210
RWRWY

WYOMING REGIONAL WEATHER ROUNDUP
NATIONAL WEATHER SERVICE CHEYENNE WY
600 AM MDT THU MAY 28 2015

NOTE:  "FAIR" INDICATES FEW OR NO CLOUDS BELOW 12,000 FEET
WITH NO SIGNIFICANT WEATHER AND/OR OBSTRUCTIONS TO VISIBILITY.

WYZ001-281300-
YELLOWSTONE NATIONAL PARK

CITY           SKY/WX    TMP DP  RH WIND       PRES   REMARKS
LK YELLOWSTONE   N/A     35  33  92 CALM      30.16S
6HR MIN TEMP:  35; 6HR MAX TEMP:  39; 6HR PCP:  0.10;

W YELLOWSTONE  NOT AVBL

$$
WYZ002>013-054>058-071-098>099-281300-
NORTHERN WYOMING

CITY           SKY/WX    TMP DP  RH WIND       PRES   REMARKS
JACKSON        CLOUDY    41  39  93 CALM      30.13S
CODY           MOCLDY    46  45  93 CALM      30.03R
GREYBULL       FAIR      53  48  83 CALM      30.00S
6HR MIN TEMP:  53; 6HR MAX TEMP:  60; 6HR PCP: TRACE;

WORLAND        FAIR      49  47  93 SW3       30.00S
6HR MIN TEMP:  49; 6HR MAX TEMP:  54;

SHERIDAN       CLOUDY    49  46  90 S3        30.00R
6HR MIN TEMP:  46; 6HR MAX TEMP:  54;

BUFFALO        CLOUDY    51  44  77 W8        30.02R
6HR MIN TEMP:  48; 6HR MAX TEMP:  53;

GILLETTE       CLOUDY    52  49  89 CALM      29.99S
6HR MIN TEMP:  47; 6HR MAX TEMP:  57; 6HR PCP:  0.10;

HULETT         PTSUNNY   52  48  87 S9        30.00R
NEWCASTLE      FAIR      50  48  93 CALM      29.98S

$$
WYZ014>020-022>026-101>103-281300-
CENTRAL WYOMING

CITY           SKY/WX    TMP DP  RH WIND       PRES   REMARKS
BIG PINEY      MOCLDY    38  35  89 CALM      30.16R
6HR MIN TEMP:  37; 6HR MAX TEMP:  44; 6HR PCP: TRACE;

PINEDALE       FAIR      36  36 100 W6        30.16S WCI  31
DUBOIS         PTSUNNY   41  34  75 NW7       30.11R
LANDER         CLOUDY    48  39  71 SW7       30.05S
6HR MIN TEMP:  46; 6HR MAX TEMP:  52;

RIVERTON       FAIR      47  42  83 NW3       30.06R
6HR MIN TEMP:  46; 6HR MAX TEMP:  52;

CASPER         MOCLDY    47  44  90 SW6       30.03F
6HR MIN TEMP:  45; 6HR MAX TEMP:  51;

DOUGLAS        FAIR      46  43  89 CALM      30.03S
6HR MIN TEMP:  44; 6HR MAX TEMP:  56;


$$
WYZ021-027>030-104>119-281300-
SOUTHERN WYOMING

CITY           SKY/WX    TMP DP  RH WIND       PRES   REMARKS
EVANSTON       FAIR      38  36  92 S6        30.16S WCI  33
6HR MIN TEMP:  38; 6HR MAX TEMP:  42;

KEMMERER       FAIR      37  36  93 W3        30.17S
FORT BRIDGER   SUNNY     41  41 100 W9        30.18S
ROCK SPRINGS   FAIR      43  39  86 SW12      30.15R
6HR MIN TEMP:  43; 6HR MAX TEMP:  49; 6HR PCP: TRACE;

DIXON          CLOUDY    49  45  87 SW6       30.18S
RAWLINS        LGT RAIN  46  43  89 SW10      30.13S
6HR MIN TEMP:  46; 6HR MAX TEMP:  50; 6HR PCP:  0.01;

SARATOGA       DRIZZLE   45  43  93 SW5       30.15S
LARAMIE        FAIR      45  38  76 SW13      30.12S
6HR MIN TEMP:  41; 6HR MAX TEMP:  49;

CHEYENNE       MOCLDY    47  45  93 W5        30.09S
6HR MIN TEMP:  46; 6HR MAX TEMP:  55; 6HR PCP: TRACE;

TORRINGTON     FOG       50  49  96 NE3       30.00S VSB<1/4
6HR MIN TEMP:  49; 6HR MAX TEMP:  59; 6HR PCP: TRACE;

PINE BLUFFS    FAIR      48  46  93 W3        30.06R

$$


USA.gov is the U.S. government's official web portal to all federal, state and local government web resources and services.